Other Surface Observations
Issued by NWS Charleston, SC

Home | Current Version | Previous Version | Text Only | Print | Product List | Glossary On
Versions: 1 2 3 4 5 6 7 8 9 10 11 12 13 14 15 16 17 18 19 20 21 22 23 24 25 26 27 28 29 30 31 32 33 34 35 36 37 38 39 40 41 42 43 44 45 46 47 48 49 50
194
SXUS52 KCHS 231812
OSOCHS

MARINE OBSERVATIONS
NATIONAL WEATHER SERVICE CHARLESTON SC
200 PM EDT TUE MAY 23 2017

...DOWNTOWN CHARLESTON AND HARBOR...

CITY           SKY/WX    TMP DP  RH WIND       PRES   REMARKS
WATERFRONT PRK   N/A     78  73  84 W7G21     29.78F

...LAKE MOULTRIE...

CITY           SKY/WX    TMP DP  RH WIND       PRES   REMARKS
PINOPOLIS        N/A     79  72  78 SW13      29.71F

...LAKE AND SUPPLEMENTAL COASTAL OBSERVATIONS...

STATION/POSITION TIME  TEMP    WIND        PRES    WAVE   SWELL
                       AIR SEA DIR/SP/G            HT/PER HT/PER/DIR
                 (UTC) (F)     (DEG/KT/KT) (MB)    (FT/S) (FT/S/D)
FORT PULASKI     1748   79     250/  7/ 12 1009.2F
SAPELO ISLAND    1700   81     220/ 12     1010.0
WINYAH BAY       1645   78     220/  8     1010.0
LAKE MURRAY      1720   72     250/  9/ 13 1008.1F
ACE BASIN NERRS  1645   79     230/  3     1010.0


...C-MAN AND BUOY OBSERVATIONS...

STATION/POSITION TIME  TEMP    WIND        PRES    WAVE   SWELL
                       AIR SEA DIR/SP/G            HT/PER HT/PER/DIR
                 (UTC) (F)     (DEG/KT/KT) (MB)    (FT/S) (FT/S/D)
BUOY 41004       1750   77 78  210/ 17/ 21 1009.3F   5/ 7
BUOY 41008       1750   78 78  180/ 14/ 17 1009.2F   3/ 5   2/ 90/ 8
FOLLY BEACH CMAN 1800   77     210/ 18/ 21 1009.7S
CAPERS NS BUOY   1708   79 76  220/ 14/ 19 1009.1F
FRIPP NS BUOY    1708   78 80  210/ 17/ 23 1009.0F
5E ST. MARYS GA  1700      79                N/A     3/ 5


STATION/POSITION TIME  TEMP    WIND        PRES    WAVE   SWELL
                       AIR SEA DIR/SP/G            HT/PER HT/PER/DIR
                 (UTC) (F)     (DEG/KT/KT) (MB)    (FT/S) (FT/S/D)
FRYING PAN BUOY  1800   78     220/ 16/ 17 1009.1
BUOY 41025       1750   73 77  190/ 19/ 25 1009.0F   5/ 5   2/110/ 9
CAPE LOOKOUT NC  1800   74     210/ 15/ 19 1008.3F
BUOY 41002       1750   76 76  200/ 16/ 19 1013.9F   4/ 5   2/340/13
BUOY 41010       1800   80     190/ 14/ 16 1014.4
ST AUGUSTINE FL  1800   85 80  190/ 18/ 20 1010.7F

$$




USA.gov is the U.S. government's official web portal to all federal, state and local government web resources and services.